EW4169 Weather Reports


Display with metric or nautical units.
time (UTC)temp
F
wind
direction
speed
MPH
gust
MPH
rain 1hr
in
rain 24hr
in
rain mn
in
humidity
%
barometer
mb
20260509233105 62 147 6.0 10.0 0.00 0.19 0.19 70 1006.6
20260509233004 62 141 6.0 10.0 0.00 0.19 0.19 70 1006.6
20260509231546 63 221 4.0 11.0 0.00 0.19 0.19 62 1006.6
20260509230057 63 214 2.0 9.0 0.00 0.19 0.19 63 1006.4
20260509224538 63 246 3.0 7.0 0.00 0.19 0.19 64 1006.5
20260509223054 62 173 4.0 7.0 0.00 0.19 0.19 67 1006.7
20260509221540 61 199 1.0 11.0 0.00 0.19 0.19 69 1006.9
20260509220058 62 144 3.0 7.0 0.00 0.19 0.19 69 1006.9
20260509214541 61 158 3.0 11.0 0.00 0.19 0.19 70 1006.7
20260509213116 61 128 3.0 9.0 0.00 0.19 0.19 70 1006.8
20260509213002 61 133 1.0 9.0 0.00 0.19 0.19 71 1006.8
20260509211548 61 175 5.0 8.0 0.00 0.19 0.19 72 1006.8
20260509210104 60 195 3.0 12.0 0.00 0.20 0.19 72 1007.0
20260509210002 60 201 3.0 12.0 0.00 0.20 0.19 73 1007.0
20260509204526 60 144 4.0 12.0 0.00 0.20 0.19 75 1007.0
20260509203004 59 237 7.0 12.0 0.00 0.20 0.19 78 1007.2
20260509201543 58 174 6.0 8.0 0.00 0.20 0.19 81 1007.5
20260509200103 58 160 5.0 11.0 0.00 0.20 0.19 82 1007.7
20260509200009 58 229 5.0 11.0 0.00 0.20 0.19 82 1007.7
20260509194548 58 232 6.0 15.0 0.00 0.20 0.19 83 1007.8
20260509193023 56 257 4.0 12.0 0.00 0.20 0.19 89 1008.2
20260509191546 55 190 4.0 9.0 0.00 0.20 0.19 94 1008.2
20260509190026 53 117 3.0 8.0 0.00 0.20 0.19 93 1008.5
20260509184547 53 213 2.0 5.0 0.01 0.20 0.19 93 1008.5
20260509183024 53 191 1.0 7.0 0.01 0.20 0.19 93 1008.6
20260509181559 53 240 2.0 6.0 0.01 0.20 0.19 93 1008.6
20260509180100 53 163 1.0 9.0 0.01 0.20 0.19 93 1008.5
20260509180002 53 163 2.0 9.0 0.01 0.20 0.19 93 1008.5
20260509174549 53 143 2.0 8.0 0.00 0.19 0.18 93 1008.4
20260509173008 52 124 4.0 10.0 0.01 0.19 0.18 93 1008.5
20260509171551 52 197 4.0 9.0 0.02 0.19 0.18 94 1008.4
20260509170013 52 168 4.0 10.0 0.03 0.19 0.18 94 1008.4
20260509164544 51 150 4.0 12.0 0.05 0.19 0.18 94 1008.3
20260509163010 51 118 1.0 5.0 0.05 0.18 0.17 94 1008.4
20260509161548 51 142 1.0 6.0 0.04 0.17 0.16 94 1008.3
20260509160029 51 136 2.0 6.0 0.04 0.16 0.15 94 1008.3
20260509154506 51 129 0.0 3.0 0.02 0.14 0.13 94 1008.4
20260509153051 50 195 0.0 5.0 0.02 0.13 0.12 94 1008.5
20260509151513 50 125 3.0 6.0 0.02 0.13 0.12 94 1008.6
20260509150037 50 161 3.0 5.0 0.02 0.12 0.11 94 1008.6
20260509144532 50 156 0.0 4.0 0.03 0.12 0.11 95 1008.7
20260509143004 50 169 0.0 3.0 0.02 0.11 0.10 95 1008.8
20260509141546 49 210 2.0 5.0 0.03 0.11 0.10 95 1008.9
20260509140010 49 183 1.0 3.0 0.03 0.10 0.09 95 1009.0
20260509134553 49 236 0.0 4.0 0.03 0.09 0.08 95 1009.0
20260509133010 48 238 0.0 3.0 0.02 0.08 0.08 95 1009.0
20260509131543 48 239 1.0 3.0 0.03 0.08 0.07 95 1009.0
20260509130023 48 226 0.0 0.0 0.02 0.07 0.06 95 1009.0
20260509124546 47 226 0.0 1.0 0.02 0.06 0.05 95 1009.2
20260509123026 47 125 0.0 0.0 0.02 0.06 0.05 96 1009.2
20260509121546 47 125 0.0 1.0 0.01 0.05 0.04 96 1009.4
20260509120016 47 202 0.0 0.0 0.02 0.05 0.04 96 1009.6
20260509114555 47 202 0.0 0.0 0.01 0.04 0.03 96 1009.7
20260509113014 46 202 0.0 0.0 0.01 0.04 0.03 96 1009.7
20260509111551 46 202 0.0 0.0 0.01 0.04 0.03 96 1009.8
20260509110014 46 202 0.0 0.0 0.01 0.03 0.02 96 1009.8
20260509104546 46 202 0.0 0.0 0.01 0.03 0.02 96 1009.7
20260509103036 46 202 0.0 0.0 0.01 0.03 0.02 96 1009.7
20260509101557 46 202 0.0 2.0 0.01 0.03 0.02 96 1009.7
20260509100100 46 231 2.0 4.0 0.00 0.02 0.01 96 1009.7
20260509094600 46 124 0.0 1.0 0.00 0.02 0.01 95 1009.4
20260509094504 45 124 0.0 0.0 0.00 0.02 0.01 95 1009.4
20260509093039 46 124 0.0 0.0 0.00 0.02 0.01 95 1009.4
20260509091529 46 124 0.0 1.0 0.00 0.02 0.01 95 1009.6
20260509090044 46 124 0.0 2.0 0.00 0.02 0.01 95 1009.6
20260509084605 45 124 0.0 0.0 0.00 0.02 0.01 95 1009.6
20260509084502 45 124 0.0 0.0 0.00 0.02 0.01 95 1009.6
20260509083046 45 124 0.0 0.0 0.00 0.02 0.01 95 1009.5
20260509081510 46 124 0.0 1.0 0.00 0.02 0.01 95 1009.5
20260509080117 46 124 0.0 2.0 0.00 0.02 0.01 95 1009.6
20260509074510 46 124 0.0 0.0 0.01 0.02 0.01 94 1009.7
20260509073054 46 272 0.0 2.0 0.01 0.02 0.01 94 1009.7
20260509071549 46 322 0.0 0.0 0.01 0.02 0.01 94 1009.7
20260509070032 46 322 0.0 0.0 0.01 0.02 0.01 94 1009.7
20260509064549 46 322 0.0 0.0 0.00 0.01 0.00 93 1010.1
20260509063032 46 321 0.0 0.0 0.00 0.01 0.00 93 1010.4
20260509061507 46 321 0.0 1.0 0.00 0.01 0.00 93 1010.7
20260509060016 47 321 2.0 2.0 0.00 0.01 0.00 92 1011.0
20260509054559 47 336 2.0 3.0 0.00 0.01 0.00 91 1011.0
20260509053033 47 82 0.0 2.0 0.00 0.01 0.00 89 1011.1
20260509051604 47 75 2.0 3.0 0.00 0.01 0.00 90 1011.4
20260509051506 47 75 2.0 3.0 0.00 0.01 0.00 90 1011.4
20260509050040 47 285 1.0 2.0 0.00 0.01 0.00 90 1011.8
20260509044533 48 285 0.0 0.0 0.00 0.01 0.00 88 1011.7
20260509043018 48 285 0.0 0.0 0.00 0.01 0.00 88 1011.6
20260509041546 48 285 0.0 0.0 0.00 0.01 0.00 87 1011.5
20260509040011 49 285 0.0 3.0 0.00 0.01 0.01 83 1011.8
20260509034520 48 276 1.0 3.0 0.00 0.01 0.01 86 1011.8
20260509033042 48 239 0.0 2.0 0.00 0.01 0.01 86 1012.0
20260509031528 47 107 0.0 1.0 0.00 0.01 0.01 89 1011.8
20260509030007 47 107 0.0 3.0 0.00 0.01 0.01 90 1011.7
20260509024528 47 107 0.0 3.0 0.00 0.01 0.01 89 1011.7
20260509023008 47 277 0.0 3.0 0.00 0.01 0.01 87 1011.8
20260509021549 48 278 0.0 3.0 0.00 0.01 0.01 85 1011.9
20260509020016 49 288 0.0 3.0 0.00 0.02 0.01 82 1011.7
20260509014555 50 97 0.0 5.0 0.00 0.02 0.01 80 1011.5
20260509013047 51 209 0.0 3.0 0.00 0.02 0.01 76 1011.6
20260509011513 52 225 3.0 11.0 0.00 0.02 0.01 74 1011.7
20260509010031 52 266 2.0 6.0 0.00 0.02 0.01 73 1011.1
20260509004532 52 275 2.0 7.0 0.00 0.02 0.01 72 1010.7
20260509003042 53 257 4.0 8.0 0.00 0.02 0.01 70 1010.9
20260509001520 53 230 4.0 11.0 0.00 0.02 0.01 68 1011.0
20260509000052 54 222 7.0 12.0 0.00 0.02 0.01 67 1010.9
20260508234532 54 252 7.0 12.0 0.00 0.02 0.01 68 1010.8